Location: Bischweier
(48.8371°N, 8.2837°E)
Time: 00:31:30
(UTC+00:00)

Daily predictions for brighter satellites

Satellite Brightness Start Highest point End
(mag) Time Altitude Azimuth Time Altitude Azimuth Time Altitude Azimuth
COSMOS 2406 3.6 03:52:21 53° SSE 03:52:21 53° SSE 03:56:38 10° SSE
Cosmos 2082 Rocket 2.3 03:52:49 64° NNE 03:53:23 69° ENE 03:58:58 10° SE
Cosmos 2344 4.3 03:48:02 10° SSW 03:55:10 49° ESE 04:02:29 10° NE
COSMOS 2455 3.2 03:57:05 52° S 03:57:05 52° S 04:01:47 10° SSE
Cosmos 1891 Rocket 4.5 03:51:34 15° N 03:57:05 89° ENE 04:03:34 10° S
METEOR-M 4.5 04:00:46 10° NNE 04:04:49 52° N 04:04:49 52° N
Cosmos 1513 Rocket 4.4 04:02:48 19° NNW 04:07:33 81° W 04:13:56 10° S
MOS 1-B Rocket 4.1 04:04:11 10° SSE 04:10:50 77° ENE 04:16:31 11° NNW
Cosmos 2034 Rocket 4.1 04:07:19 10° N 04:13:33 74° E 04:19:47 10° SSE
Cosmos 1900 4.2 04:13:43 83° NNW 04:13:54 88° NE 04:18:56 10° SE
Cosmos 2278 Rocket 2.0 04:13:39 62° SW 04:14:38 82° WNW 04:20:21 10° NNE
USA 215 3.3 04:10:04 10° SE 04:16:31 61° SW 04:17:51 51° W
Cosmos 1943 Rocket 4.1 04:14:28 10° SSE 04:19:18 30° ESE 04:24:08 10° NE
CZ-2C R/B 3.0 04:15:16 10° SSE 04:20:46 68° ENE 04:26:11 10° N
BREEZE M DEB (TANK) 3.2 04:21:18 67° SW 04:21:48 79° SSE 04:24:40 10° E
Cosmos 1072 Rocket 4.3 04:18:58 22° NNW 04:22:59 65° W 04:29:01 10° S
SKYMED 2 3.8 04:19:48 10° SSE 04:24:07 69° ENE 04:26:01 32° N
Cosmos 540 Rocket 3.3 04:25:25 66° W 04:25:44 68° WSW 04:30:50 10° S
Cosmos 2221 4.1 04:32:04 23° SSW 04:32:04 23° SSW 04:33:48 10° S
Cosmos 1933 4.0 04:27:43 22° N 04:30:06 54° ENE 04:34:02 10° SSE
Cosmos 2346 Rocket 4.4 04:23:51 10° SSW 04:30:07 79° W 04:36:26 10° N
Cosmos 1833 Rocket 3.9 04:34:00 25° SW 04:34:00 25° SW 04:36:55 10° SSW
Cosmos 1741 Rocket 3.9 04:30:04 13° SSW 04:34:50 87° WNW 04:40:05 10° NNE
SL-8 R/B 3.8 04:35:05 52° SW 04:36:10 72° SSE 04:40:56 10° E
Tsikada Rocket 4.3 04:31:01 10° S 04:37:07 66° E 04:43:19 10° NNE
Meteor 1-31 Rocket 3.4 04:33:57 10° NNE 04:37:47 57° E 04:41:36 10° S
Cosmos 2151 3.4 04:38:23 10° S 04:42:36 63° E 04:46:53 10° NNE
Cosmos 1812 4.4 04:45:49 10° N 04:49:21 33° ENE 04:52:52 10° SE
Cosmos 841 Rocket 3.5 04:48:36 37° NW 04:50:18 54° WSW 04:55:18 10° S
CZ-4C R/B 2.9 04:47:27 10° SSE 04:50:37 72° ENE 04:51:33 42° N
H-2A R/B 3.3 04:53:08 10° SE 04:57:03 39° ENE 05:01:05 10° N
SJ-12 3.8 04:53:13 10° N 04:57:19 65° WNW 05:01:25 10° SSW
Envisat 2.9 04:53:07 10° N 04:58:13 74° WNW 05:03:16 10° SSW
Genesis I 4.5 04:57:08 20° NNW 04:59:28 38° NE 05:03:18 10° ESE
Cosmos 1570 Rocket 3.9 05:01:27 17° NNW 05:05:31 74° WSW 05:10:44 10° SSE
SAR-Lupe-3 4.5 05:02:21 10° N 05:05:53 59° WNW 05:09:24 10° SSW
YAOGAN 6 2.9 05:02:55 10° N 05:06:27 44° WNW 05:09:57 10° SW
Cosmos 1076 Rocket 3.7 05:03:29 10° SSW 05:07:43 48° WNW 05:11:58 10° N
DMSP B5D2-2 4.2 05:04:43 10° SSE 05:09:56 76° ENE 05:15:10 10° NNW
CBERS 1 LM4 rocket 4.3 05:05:22 10° N 05:10:07 68° WNW 05:14:58 10° SSW
Cosmos 2369 Rocket 4.0 05:05:30 10° SSE 05:10:26 33° ESE 05:15:24 10° NE
COSMO-SKYMED 1 3.0 05:08:12 10° SSW 05:12:17 40° W 05:14:38 22° NW
Aureole 1 Rocket 3.0 05:10:58 10° S 05:14:01 50° ESE 05:16:55 10° NNE
Cosmos 1867 3.5 05:10:50 20° NW 05:14:46 82° SW 05:20:14 10° SSE
Cosmos 1241 Rocket 4.4 05:10:06 16° NW 05:15:10 88° SW 05:21:22 10° SE
APEX 2.2 05:16:51 43° NW 05:17:35 69° WSW 05:20:28 10° SSE
Cosmos 921 Rocket 3.4 05:13:25 10° NNW 05:17:46 65° ENE 05:22:09 10° SSE
Cosmos 2084 Rocket 3.3 05:14:43 10° SW 05:18:35 76° SE 05:22:27 10° NE
H-2A R/B 3.2 05:16:02 10° N 05:19:24 35° WNW 05:22:46 10° SW
NOSS 3-2 (A) 3.4 05:14:00 10° SW 05:19:38 88° SE 05:26:13 10° NE
Cosmos 1328 Rocket 4.5 05:15:23 10° N 05:19:42 49° ENE 05:23:57 10° SSE
FALCON 9 DEB 4.4 05:19:21 10° SSW 05:21:57 32° SE 05:24:34 10° ENE
NOSS 3-2 (C) 4.0 05:17:43 10° SSW 05:23:09 58° ESE 05:29:27 10° NE
Cosmos 1151 Rocket 3.2 05:21:34 10° N 05:25:59 79° E 05:30:22 10° SSE
CENTAUR R/B 2.7 05:20:26 10° SSW 05:26:20 80° SE 05:33:30 10° NE
Cosmos 968 Rocket 3.8 05:22:18 10° SSW 05:27:27 71° ESE 05:32:34 10° NNE
CZ-4B R/B 2.8 05:26:02 10° NNE 05:29:41 73° ESE 05:33:15 10° S
Cosmos 2208 Rocket 4.2 05:24:24 10° NNW 05:29:45 59° WSW 05:35:03 10° S
Gbstr 26 Del rocket 3.3 05:28:19 22° W 05:30:29 47° SSW 05:34:40 10° SE
Meteor 2-6 Rocket 4.3 05:25:15 10° N 05:30:46 75° ENE 05:36:09 10° SSE
Meteor 2-3 Rocket 3.8 05:26:18 10° SSW 05:31:50 58° WNW 05:37:29 10° N
Cosmos 1814 Rocket 4.4 05:28:34 15° NW 05:32:24 38° WSW 05:37:07 10° S
Landsat 5 4.4 05:28:47 10° SSW 05:32:49 32° W 05:36:49 10° NNW
Cosmos 2082 Rocket 3.4 05:34:44 17° WNW 05:36:54 22° W 05:41:03 10° SSW
NOSS 8 (A) 4.0 05:36:59 10° SW 05:40:16 63° NW 05:43:07 10° NE
Meteor PRIRODA 3.5 05:36:53 10° N 05:40:29 72° WNW 05:44:05 10° SSW
CZ-4B R/B 2.1 05:38:15 10° SSE 05:41:33 54° ENE 05:44:49 10° N
Cosmos 2297 3.7 05:36:53 10° SW 05:42:38 71° WNW 05:48:23 10° NNE
USA 238 DEB 3.7 05:44:53 10° SW 05:51:24 89° NW 05:58:22 10° NE
USA 238 3.7 05:45:00 10° SW 05:51:30 89° NW 05:58:27 10° NE
Cosmos 1515 Rocket 4.2 05:48:17 10° N 05:52:40 59° ENE 05:56:58 10° SSE
Cosmos 1782 3.7 05:49:19 10° NNW 05:52:44 28° W 05:56:09 10° SSW
NOAA 11 4.3 05:49:18 10° N 05:54:37 56° WNW 05:59:57 10° SW
CZ-2C R/B 2.8 05:51:41 10° N 05:56:24 64° WNW 06:01:14 10° SSW
Cosmos 1862 3.2 05:53:22 10° SSW 05:57:18 75° W 06:01:17 10° N
Okean O Rocket 4.2 05:54:12 10° NE 05:57:52 24° E 06:01:30 10° SSE
NOAA 6 4.3 05:53:52 10° NNE 05:59:01 76° ESE 06:04:07 10° S
SWAS 4.5 05:54:59 10° SW 05:59:15 63° WNW 06:03:34 10° NNE
Cosmos 2278 Rocket 3.5 05:55:34 10° W 05:59:38 20° NW 06:03:47 10° N
CZ-2C R/B 3.9 05:57:27 10° SW 06:01:32 21° W 06:05:34 10° NW
Cosmos 1943 Rocket 2.3 05:57:15 10° SW 06:02:46 53° NW 06:08:20 10° NNE
Meteor 2-15 4.4 05:57:45 10° N 06:03:51 84° W 06:09:55 10° S
Okean 3 Rocket 3.6 06:01:08 10° SSW 06:05:38 68° WNW 06:10:12 10° N
Cosmos 1486 Rocket 4.1 06:01:19 10° SSW 06:06:39 89° WNW 06:11:59 10° NNE
CORIOLIS 4.4 06:04:03 10° NNE 06:09:32 82° ESE 06:15:00 10° SSW
Cosmos 2344 3.8 06:02:28 10° WSW 06:09:34 48° NNW 06:17:34 10° NE
FengYun 1-2 T 4.2 06:04:26 10° NNE 06:09:58 76° WNW 06:15:26 10° SSW
Cosmos 1656 Rocket 4.1 06:04:46 10° SSW 06:10:07 68° ESE 06:15:32 10° NNE
ADEOS 4.1 06:05:24 10° N 06:10:09 36° WNW 06:14:52 10° SW
OPS 8737 4.4 06:06:39 10° SW 06:10:38 63° NW 06:13:44 10° NE
Cosmos 1833 4.3 06:05:49 10° NNW 06:11:32 85° ENE 06:17:15 10° SSE
Meteor 1-31 Rocket 4.4 06:09:26 10° NNW 06:11:44 15° WNW 06:14:03 10° W
SJ 16-02 4.0 06:13:51 10° SSE 06:17:28 26° E 06:21:06 10° NE
SL-8 R/B 3.8 06:13:52 10° W 06:18:40 85° S 06:23:28 10° E
Cosmos 2279 Rocket 4.4 06:14:08 10° NNW 06:19:57 44° W 06:25:44 10° SSW
BREEZE-M DEB (TANK) 4.0 06:13:08 10° SW 06:22:01 46° SSE 06:25:01 10° E
